| time (UTC) | temp F | wind direction | speed MPH | gust MPH | rain 1hr in | rain 24hr in | rain mn in | humidity % | barometer mb |
| 20260506203033 | 58 | 359 | 3.0 | 9.0 | 0.00 | 0.38 | 0.38 | 94 | 1013.6 |
| 20260506201539 | 57 | 307 | 4.0 | 8.0 | 0.00 | 0.38 | 0.38 | 94 | 1013.8 |
| 20260506200037 | 56 | 316 | 4.0 | 12.0 | 0.00 | 0.38 | 0.38 | 94 | 1014.0 |
| 20260506194532 | 55 | 338 | 5.0 | 8.0 | 0.00 | 0.38 | 0.38 | 94 | 1013.8 |
| 20260506193034 | 55 | 8 | 5.0 | 11.0 | 0.00 | 0.38 | 0.38 | 94 | 1014.1 |
| 20260506191536 | 55 | 338 | 6.0 | 11.0 | 0.00 | 0.38 | 0.38 | 94 | 1014.0 |
| 20260506190036 | 55 | 4 | 6.0 | 12.0 | 0.00 | 0.38 | 0.38 | 95 | 1014.3 |
| 20260506184542 | 54 | 319 | 5.0 | 11.0 | 0.00 | 0.38 | 0.38 | 95 | 1014.4 |
| 20260506183040 | 54 | 302 | 6.0 | 12.0 | 0.00 | 0.38 | 0.38 | 95 | 1014.6 |
| 20260506181531 | 54 | 311 | 6.0 | 10.0 | 0.00 | 0.38 | 0.38 | 95 | 1014.6 |
| 20260506180040 | 54 | 343 | 5.0 | 10.0 | 0.00 | 0.38 | 0.38 | 95 | 1014.6 |
| 20260506174537 | 54 | 328 | 5.0 | 9.0 | 0.00 | 0.38 | 0.38 | 95 | 1014.6 |
| 20260506173039 | 54 | 359 | 6.0 | 11.0 | 0.00 | 0.38 | 0.38 | 95 | 1014.9 |
| 20260506171553 | 54 | 352 | 4.0 | 9.0 | 0.00 | 0.38 | 0.38 | 95 | 1014.3 |
| 20260506170043 | 54 | 53 | 5.0 | 11.0 | 0.00 | 0.38 | 0.38 | 95 | 1014.1 |
| 20260506164536 | 54 | 2 | 6.0 | 11.0 | 0.00 | 0.38 | 0.38 | 94 | 1014.2 |
| 20260506163035 | 55 | 319 | 4.0 | 14.0 | 0.00 | 0.38 | 0.38 | 95 | 1013.6 |
| 20260506161537 | 55 | 320 | 4.0 | 9.0 | 0.01 | 0.38 | 0.38 | 95 | 1013.8 |
| 20260506160039 | 54 | 317 | 4.0 | 8.0 | 0.01 | 0.38 | 0.38 | 95 | 1013.5 |
| 20260506154540 | 55 | 46 | 3.0 | 8.0 | 0.01 | 0.38 | 0.38 | 95 | 1013.1 |
| 20260506153035 | 54 | 13 | 1.0 | 7.0 | 0.01 | 0.38 | 0.38 | 95 | 1013.5 |
| 20260506151540 | 54 | 27 | 4.0 | 10.0 | 0.00 | 0.37 | 0.37 | 95 | 1013.1 |
| 20260506150033 | 53 | 356 | 5.0 | 12.0 | 0.02 | 0.37 | 0.37 | 95 | 1013.1 |
| 20260506144546 | 53 | 323 | 4.0 | 9.0 | 0.04 | 0.37 | 0.37 | 95 | 1012.9 |
| 20260506143037 | 53 | 47 | 6.0 | 11.0 | 0.20 | 0.37 | 0.37 | 95 | 1011.7 |
| 20260506141532 | 52 | 53 | 6.0 | 10.0 | 0.34 | 0.37 | 0.37 | 95 | 1012.2 |
| 20260506140036 | 52 | 103 | 8.0 | 13.0 | 0.35 | 0.35 | 0.35 | 94 | 1012.7 |
| 20260506134536 | 53 | 358 | 7.0 | 15.0 | 0.33 | 0.33 | 0.33 | 94 | 1012.7 |
| 20260506133034 | 54 | 20 | 7.0 | 13.0 | 0.15 | 0.15 | 0.15 | 93 | 1012.9 |
| 20260506131543 | 55 | 18 | 6.0 | 19.0 | 0.03 | 0.03 | 0.03 | 92 | 1013.0 |
| 20260506130035 | 57 | 5 | 8.0 | 15.0 | 0.00 | 0.00 | 0.00 | 87 | 1010.5 |
| 20260506124536 | 58 | 58 | 6.0 | 12.0 | 0.00 | 0.00 | 0.00 | 85 | 1010.7 |
| 20260506123035 | 59 | 37 | 6.0 | 9.0 | 0.00 | 0.00 | 0.00 | 84 | 1010.9 |
| 20260506121534 | 59 | 30 | 3.0 | 7.0 | 0.00 | 0.00 | 0.00 | 85 | 1010.3 |
| 20260506120039 | 60 | 25 | 4.0 | 11.0 | 0.00 | 0.00 | 0.00 | 84 | 1010.2 |
| 20260506114538 | 60 | 32 | 1.0 | 7.0 | 0.00 | 0.00 | 0.00 | 84 | 1010.3 |
| 20260506113033 | 61 | 1 | 3.0 | 6.0 | 0.00 | 0.00 | 0.00 | 84 | 1010.1 |
| 20260506111533 | 61 | 8 | 2.0 | 8.0 | 0.00 | 0.00 | 0.00 | 84 | 1010.0 |
| 20260506110038 | 62 | 17 | 2.0 | 6.0 | 0.00 | 0.00 | 0.00 | 83 | 1010.1 |
| 20260506104537 | 62 | 347 | 4.0 | 7.0 | 0.00 | 0.00 | 0.00 | 83 | 1010.2 |
| 20260506103035 | 62 | 321 | 1.0 | 4.0 | 0.00 | 0.00 | 0.00 | 83 | 1010.1 |
| 20260506101534 | 63 | 15 | 1.0 | 6.0 | 0.00 | 0.00 | 0.00 | 83 | 1009.8 |
| 20260506100032 | 63 | 6 | 3.0 | 5.0 | 0.00 | 0.00 | 0.00 | 82 | 1009.7 |
| 20260506094536 | 64 | 335 | 1.0 | 3.0 | 0.00 | 0.00 | 0.00 | 84 | 1009.7 |
| 20260506093036 | 64 | 11 | 1.0 | 3.0 | 0.00 | 0.00 | 0.00 | 84 | 1009.5 |
| 20260506091536 | 64 | 8 | 1.0 | 2.0 | 0.00 | 0.00 | 0.00 | 83 | 1009.2 |
| 20260506090035 | 64 | 14 | 1.0 | 3.0 | 0.00 | 0.00 | 0.00 | 84 | 1009.0 |
| 20260506084540 | 64 | 337 | 1.0 | 3.0 | 0.00 | 0.00 | 0.00 | 84 | 1009.1 |
| 20260506083037 | 64 | 41 | 1.0 | 5.0 | 0.00 | 0.00 | 0.00 | 85 | 1009.0 |
| 20260506081535 | 64 | 42 | 1.0 | 4.0 | 0.00 | 0.00 | 0.00 | 85 | 1009.1 |
| 20260506073035 | 64 | 0 | 0.0 | 1.0 | 0.00 | 0.00 | 0.00 | 86 | 1008.6 |
| 20260506071536 | 65 | 0 | 1.0 | 2.0 | 0.00 | 0.00 | 0.00 | 85 | 1008.8 |
| 20260506061535 | 70 | 0 | 0.0 | 1.0 | 0.00 | 0.00 | 0.00 | 86 | 1008.5 |
| 20260506044543 | 72 | 204 | 1.0 | 2.0 | 0.00 | 0.00 | 0.00 | 81 | 1008.6 |
| 20260506043035 | 72 | 162 | 0.0 | 2.0 | 0.00 | 0.00 | 0.00 | 80 | 1008.5 |
| 20260506041534 | 73 | 264 | 0.0 | 5.0 | 0.00 | 0.00 | 0.00 | 79 | 1008.6 |
| 20260506040035 | 72 | 252 | 1.0 | 3.0 | 0.00 | 0.00 | 0.00 | 80 | 1008.6 |
| 20260506034538 | 73 | 250 | 1.0 | 4.0 | 0.00 | 0.00 | 0.00 | 80 | 1008.4 |
| 20260506033038 | 73 | 165 | 3.0 | 5.0 | 0.00 | 0.00 | 0.00 | 76 | 1008.2 |
| 20260506031537 | 74 | 204 | 2.0 | 5.0 | 0.00 | 0.00 | 0.00 | 74 | 1008.0 |
| 20260506030055 | 74 | 197 | 3.0 | 5.0 | 0.00 | 0.00 | 0.00 | 71 | 1007.8 |
| 20260506024547 | 73 | 182 | 2.0 | 3.0 | 0.00 | 0.00 | 0.00 | 73 | 1007.8 |
| 20260506023034 | 75 | 114 | 1.0 | 2.0 | 0.00 | 0.00 | 0.00 | 68 | 1007.5 |
| 20260506021537 | 76 | 0 | 0.0 | 4.0 | 0.00 | 0.00 | 0.00 | 66 | 1007.1 |
| 20260506020035 | 78 | 146 | 0.0 | 2.0 | 0.00 | 0.00 | 0.00 | 58 | 1006.9 |
| 20260506014539 | 78 | 141 | 1.0 | 2.0 | 0.00 | 0.00 | 0.00 | 59 | 1006.7 |
| 20260506013036 | 79 | 135 | 1.0 | 2.0 | 0.00 | 0.00 | 0.00 | 61 | 1006.4 |
| 20260506011539 | 80 | 85 | 1.0 | 2.0 | 0.00 | 0.00 | 0.00 | 55 | 1006.3 |
| 20260506010043 | 84 | 181 | 0.0 | 0.0 | 0.00 | 0.00 | 0.00 | 50 | 1006.0 |
| 20260506004545 | 88 | 180 | 1.0 | 2.0 | 0.00 | 0.00 | 0.00 | 43 | 1005.7 |
| 20260506003039 | 92 | 0 | 0.0 | 2.0 | 0.00 | 0.00 | 0.00 | 41 | 1005.8 |
| 20260506001536 | 92 | 202 | 1.0 | 3.0 | 0.00 | 0.00 | 0.00 | 37 | 1005.8 |
| 20260506000033 | 95 | 197 | 1.0 | 3.0 | 0.00 | 0.00 | 0.00 | 35 | 1006.0 |
| 20260505234538 | 97 | 0 | 0.0 | 2.0 | 0.00 | 0.00 | 0.00 | 33 | 1006.0 |
| 20260505233035 | 93 | 232 | 0.0 | 3.0 | 0.00 | 0.00 | 0.00 | 38 | 1006.0 |
| 20260505231533 | 89 | 281 | 0.0 | 4.0 | 0.00 | 0.00 | 0.00 | 39 | 1006.0 |
| 20260505230045 | 91 | 260 | 1.0 | 4.0 | 0.00 | 0.00 | 0.00 | 39 | 1005.9 |
| 20260505224537 | 90 | 274 | 2.0 | 7.0 | 0.00 | 0.00 | 0.00 | 36 | 1006.2 |
| 20260505223036 | 90 | 297 | 3.0 | 8.0 | 0.00 | 0.00 | 0.00 | 35 | 1006.3 |
| 20260505221533 | 90 | 268 | 3.0 | 7.0 | 0.00 | 0.00 | 0.00 | 36 | 1006.0 |
| 20260505220040 | 91 | 268 | 6.0 | 10.0 | 0.00 | 0.00 | 0.00 | 35 | 1006.3 |
| 20260505214535 | 91 | 315 | 5.0 | 11.0 | 0.00 | 0.00 | 0.00 | 37 | 1006.4 |
| 20260505213043 | 91 | 267 | 3.0 | 9.0 | 0.00 | 0.00 | 0.00 | 35 | 1006.3 |
| 20260505211542 | 90 | 278 | 4.0 | 10.0 | 0.00 | 0.00 | 0.00 | 38 | 1006.3 |
| 20260505210033 | 90 | 279 | 3.0 | 8.0 | 0.00 | 0.00 | 0.00 | 35 | 1006.3 |
| 20260505204536 | 90 | 281 | 2.0 | 7.0 | 0.00 | 0.00 | 0.00 | 42 | 1006.5 |